Location: Wells
(51.2093°N, 2.6446°W)
Time: 08:39:04
(UTC+01:00)

SO-50 - Pass Details

Date: 15 March 2026
Orbit: 567 x 673 km, 64.6° (Epoch: 17 April)

Event Time Altitude Azimuth Distance (km) Brightness Sun altitude
Rises 23:19:39 0° 311° (NW) 3,019 ? -39.0°
Reaches altitude 10° 23:22:36 10° 329° (NNW) 2,112 ? -39.2°
Enters shadow 23:23:56 15° 343° (NNW) 1,804 ? -39.3°
